{"data":{"norad_id":68988,"intl_designator":"2026-100J","name":"CAS500-2 RIDESHARE OBJE*","alt_names":[],"object_type":"PAYLOAD","status":"ACTIVE","operator":null,"country":"TBD","launch_date":"2026-05-03","launch_site_code":"AFWTR","launch_vehicle":null,"mission":null,"orbit_class":"UNKNOWN","rcs_meters":null,"size_class":null,"mass_kg":null,"dimensions":null,"purposes":[],"wikipedia_slug":null,"has_3d_model":false,"image_url":null,"decayed_at":null,"tle_current":{"epoch":"2026-05-24T22:46:01.935264Z","epoch_age_seconds":73336,"freshness":"FRESH","line1":"1 68988U 26100J   26144.94863351  .00001063  00000+0  11433-3 0  9998","line2":"2 68988  97.7368  42.7971 0005460 218.1012 141.9820 14.90564168  3238","mean_motion":14.90564168,"eccentricity":0.000546,"inclination_deg":97.7368,"raan_deg":42.7971,"arg_perigee_deg":218.1012,"mean_anomaly_deg":141.982,"bstar":0.00011433,"rev_number":323,"period_min":96.607716119471,"perigee_km":592.36731690647,"apogee_km":599.9832659287,"semimajor_km":6974.3122914176,"source":"CELESTRAK","updated_at":"2026-05-25T13:38:08.808712Z"}}}